Year,Month,Day,Hour,Minute,Value (Times are PST for temperature in C)
2018,10,14,00,00,4.70
2018,10,14,00,01,4.70
2018,10,14,00,02,4.70
2018,10,14,00,03,4.70
2018,10,14,00,04,4.60
2018,10,14,00,05,4.60
2018,10,14,00,06,4.60
2018,10,14,00,07,4.60
2018,10,14,00,08,4.60
2018,10,14,00,09,4.60
2018,10,14,00,10,4.60
2018,10,14,00,11,4.60
2018,10,14,00,12,4.60
2018,10,14,00,13,4.60
2018,10,14,00,14,4.60
2018,10,14,00,15,4.60
2018,10,14,00,16,4.60
2018,10,14,00,17,4.60
2018,10,14,00,18,4.50
2018,10,14,00,19,4.50
2018,10,14,00,20,4.50
2018,10,14,00,21,4.50
2018,10,14,00,22,4.50
2018,10,14,00,23,4.50
2018,10,14,00,24,4.50
2018,10,14,00,25,4.50
2018,10,14,00,26,4.50
2018,10,14,00,27,4.50
2018,10,14,00,28,4.50
2018,10,14,00,29,4.50
2018,10,14,00,30,4.60
2018,10,14,00,31,4.60
2018,10,14,00,32,4.60
2018,10,14,00,33,4.50
2018,10,14,00,34,4.50
2018,10,14,00,35,4.40
2018,10,14,00,36,4.40
2018,10,14,00,37,4.40
2018,10,14,00,38,4.40
2018,10,14,00,39,4.40
2018,10,14,00,40,4.30
2018,10,14,00,41,4.30
2018,10,14,00,42,4.30
2018,10,14,00,43,4.30
2018,10,14,00,44,4.30
2018,10,14,00,45,4.40
2018,10,14,00,46,4.40
2018,10,14,00,47,4.40
2018,10,14,00,48,4.40
2018,10,14,00,49,4.50
2018,10,14,00,50,4.50
2018,10,14,00,51,4.50
2018,10,14,00,52,4.50
2018,10,14,00,53,4.50
2018,10,14,00,54,4.50
2018,10,14,00,55,4.50
2018,10,14,00,56,4.50
2018,10,14,00,57,4.50
2018,10,14,00,58,4.50
2018,10,14,00,59,4.50
2018,10,14,01,00,4.50
2018,10,14,01,01,4.50
2018,10,14,01,02,4.50
2018,10,14,01,03,4.50
2018,10,14,01,04,4.50
2018,10,14,01,05,4.40
2018,10,14,01,06,4.40
2018,10,14,01,07,4.40
2018,10,14,01,08,4.30
2018,10,14,01,09,4.30
2018,10,14,01,10,4.30
2018,10,14,01,11,4.30
2018,10,14,01,12,4.20
2018,10,14,01,13,4.20
2018,10,14,01,14,4.20
2018,10,14,01,15,4.30
2018,10,14,01,16,4.30
2018,10,14,01,17,4.30
2018,10,14,01,18,4.30
2018,10,14,01,19,4.30
2018,10,14,01,20,4.30
2018,10,14,01,21,4.30
2018,10,14,01,22,4.30
2018,10,14,01,23,4.40
2018,10,14,01,24,4.40
2018,10,14,01,25,4.40
2018,10,14,01,26,4.40
2018,10,14,01,27,4.40
2018,10,14,01,28,4.40
2018,10,14,01,29,4.30
2018,10,14,01,30,4.30
2018,10,14,01,31,4.30
2018,10,14,01,32,4.20
2018,10,14,01,33,4.20
2018,10,14,01,34,4.20
2018,10,14,01,35,4.20
2018,10,14,01,36,4.10
2018,10,14,01,37,4.10
2018,10,14,01,38,4.10
2018,10,14,01,39,4.00
2018,10,14,01,40,4.00
2018,10,14,01,41,3.90
2018,10,14,01,42,3.90
2018,10,14,01,43,3.90
2018,10,14,01,44,3.90
2018,10,14,01,45,3.80
2018,10,14,01,46,3.80
2018,10,14,01,47,3.80
2018,10,14,01,48,3.80
2018,10,14,01,49,3.80
2018,10,14,01,50,3.80
2018,10,14,01,51,3.80
2018,10,14,01,52,3.70
2018,10,14,01,53,3.70
2018,10,14,01,54,3.70
2018,10,14,01,55,3.70
2018,10,14,01,56,3.70
2018,10,14,01,57,3.70
2018,10,14,01,58,3.70
2018,10,14,01,59,3.70
2018,10,14,02,00,3.70
2018,10,14,02,01,3.80
2018,10,14,02,02,3.80
2018,10,14,02,03,3.80
2018,10,14,02,04,3.80
2018,10,14,02,05,3.80
2018,10,14,02,06,3.80
2018,10,14,02,07,3.80
2018,10,14,02,08,3.80
2018,10,14,02,09,3.80
2018,10,14,02,10,3.70
2018,10,14,02,11,3.70
2018,10,14,02,12,3.70
2018,10,14,02,13,3.70
2018,10,14,02,14,3.70
2018,10,14,02,15,3.70
2018,10,14,02,16,3.70
2018,10,14,02,17,3.70
2018,10,14,02,18,3.80
2018,10,14,02,19,3.80
2018,10,14,02,20,3.80
2018,10,14,02,21,3.80
2018,10,14,02,22,3.90
2018,10,14,02,23,3.90
2018,10,14,02,24,3.90
2018,10,14,02,25,4.00
2018,10,14,02,26,4.00
2018,10,14,02,27,4.00
2018,10,14,02,28,4.00
2018,10,14,02,29,4.10
2018,10,14,02,30,4.10
2018,10,14,02,31,4.10
2018,10,14,02,32,4.10
2018,10,14,02,33,4.10
2018,10,14,02,34,4.10
2018,10,14,02,35,4.10
2018,10,14,02,36,4.10
2018,10,14,02,37,4.10
2018,10,14,02,38,4.10
2018,10,14,02,39,4.10
2018,10,14,02,40,4.10
2018,10,14,02,41,4.10
2018,10,14,02,42,4.10
2018,10,14,02,43,4.10
2018,10,14,02,44,4.10
2018,10,14,02,45,4.10
2018,10,14,02,46,4.10
2018,10,14,02,47,4.10
2018,10,14,02,48,4.00
2018,10,14,02,49,4.00
2018,10,14,02,50,3.90
2018,10,14,02,51,3.90
2018,10,14,02,52,3.90
2018,10,14,02,53,3.80
2018,10,14,02,54,3.80
2018,10,14,02,55,3.80
2018,10,14,02,56,3.80
2018,10,14,02,57,3.80
2018,10,14,02,58,3.80
2018,10,14,02,59,3.80
2018,10,14,03,00,3.70
2018,10,14,03,01,3.70
2018,10,14,03,02,3.60
2018,10,14,03,03,3.60
2018,10,14,03,04,3.50
2018,10,14,03,05,3.50
2018,10,14,03,06,3.40
2018,10,14,03,07,3.40
2018,10,14,03,08,3.30
2018,10,14,03,09,3.30
2018,10,14,03,10,3.30
2018,10,14,03,11,3.30
2018,10,14,03,12,3.20
2018,10,14,03,13,3.20
2018,10,14,03,14,3.20
2018,10,14,03,15,3.20
2018,10,14,03,16,3.10
2018,10,14,03,17,3.10
2018,10,14,03,18,3.10
2018,10,14,03,19,3.10
2018,10,14,03,20,3.10
2018,10,14,03,21,3.10
2018,10,14,03,22,3.10
2018,10,14,03,23,3.10
2018,10,14,03,24,3.00
2018,10,14,03,25,3.00
2018,10,14,03,26,3.00
2018,10,14,03,27,3.00
2018,10,14,03,28,3.00
2018,10,14,03,29,2.90
2018,10,14,03,30,2.90
2018,10,14,03,31,2.90
2018,10,14,03,32,2.90
2018,10,14,03,33,2.80
2018,10,14,03,34,2.80
2018,10,14,03,35,2.80
2018,10,14,03,36,2.80
2018,10,14,03,37,2.80
2018,10,14,03,38,2.70
2018,10,14,03,39,2.70
2018,10,14,03,40,2.70
2018,10,14,03,41,2.70
2018,10,14,03,42,2.70
2018,10,14,03,43,2.60
2018,10,14,03,44,2.60
2018,10,14,03,45,2.60
2018,10,14,03,46,2.60
2018,10,14,03,47,2.60
2018,10,14,03,48,2.60
2018,10,14,03,49,2.60
2018,10,14,03,50,2.60
2018,10,14,03,51,2.60
2018,10,14,03,52,2.60
2018,10,14,03,53,2.60
2018,10,14,03,54,2.50
2018,10,14,03,55,2.50
2018,10,14,03,56,2.50
2018,10,14,03,57,2.50
2018,10,14,03,58,2.50
2018,10,14,03,59,2.50
2018,10,14,04,00,2.50
2018,10,14,04,01,2.60
2018,10,14,04,02,2.60
2018,10,14,04,03,2.60
2018,10,14,04,04,2.60
2018,10,14,04,05,2.60
2018,10,14,04,06,2.70
2018,10,14,04,07,2.70
2018,10,14,04,08,2.60
2018,10,14,04,09,2.60
2018,10,14,04,10,2.60
2018,10,14,04,11,2.60
2018,10,14,04,12,2.60
2018,10,14,04,13,2.60
2018,10,14,04,14,2.60
2018,10,14,04,15,2.60
2018,10,14,04,16,2.60
2018,10,14,04,17,2.60
2018,10,14,04,18,2.60
2018,10,14,04,19,2.60
2018,10,14,04,20,2.50
2018,10,14,04,21,2.50
2018,10,14,04,22,2.50
2018,10,14,04,23,2.50
2018,10,14,04,24,2.40
2018,10,14,04,25,2.40
2018,10,14,04,26,2.40
2018,10,14,04,27,2.40
2018,10,14,04,28,2.50
2018,10,14,04,29,2.50
2018,10,14,04,30,2.60
2018,10,14,04,31,2.70
2018,10,14,04,32,2.70
2018,10,14,04,33,2.70
2018,10,14,04,34,2.70
2018,10,14,04,35,2.70
2018,10,14,04,36,2.70
2018,10,14,04,37,2.60
2018,10,14,04,38,2.60
2018,10,14,04,39,2.60
2018,10,14,04,40,2.50
2018,10,14,04,41,2.50
2018,10,14,04,42,2.50
2018,10,14,04,43,2.40
2018,10,14,04,44,2.40
2018,10,14,04,45,2.40
2018,10,14,04,46,2.40
2018,10,14,04,47,2.30
2018,10,14,04,48,2.30
2018,10,14,04,49,2.30
2018,10,14,04,50,2.30
2018,10,14,04,51,2.30
2018,10,14,04,52,2.30
2018,10,14,04,53,2.30
2018,10,14,04,54,2.30
2018,10,14,04,55,2.20
2018,10,14,04,56,2.20
2018,10,14,04,57,2.20
2018,10,14,04,58,2.20
2018,10,14,04,59,2.20
2018,10,14,05,00,2.20
2018,10,14,05,01,2.10
2018,10,14,05,02,2.10
2018,10,14,05,03,2.10
2018,10,14,05,04,2.10
2018,10,14,05,05,2.10
2018,10,14,05,06,2.10
2018,10,14,05,07,2.10
2018,10,14,05,08,2.00
2018,10,14,05,09,2.00
2018,10,14,05,10,2.00
2018,10,14,05,11,2.10
2018,10,14,05,12,2.10
2018,10,14,05,13,2.10
2018,10,14,05,14,2.10
2018,10,14,05,15,2.10
2018,10,14,05,16,2.10
2018,10,14,05,17,2.10
2018,10,14,05,18,2.10
2018,10,14,05,19,2.10
2018,10,14,05,20,2.10
2018,10,14,05,21,2.10
2018,10,14,05,22,2.00
2018,10,14,05,23,2.00
2018,10,14,05,24,2.10
2018,10,14,05,25,2.10
2018,10,14,05,26,2.20
2018,10,14,05,27,2.20
2018,10,14,05,28,2.30
2018,10,14,05,29,2.30
2018,10,14,05,30,2.30
2018,10,14,05,31,2.30
2018,10,14,05,32,2.40
2018,10,14,05,33,2.40
2018,10,14,05,34,2.40
2018,10,14,05,35,2.40
2018,10,14,05,36,2.40
2018,10,14,05,37,2.50
2018,10,14,05,38,2.50
2018,10,14,05,39,2.50
2018,10,14,05,40,2.40
2018,10,14,05,41,2.40
2018,10,14,05,42,2.30
2018,10,14,05,43,2.30
2018,10,14,05,44,2.30
2018,10,14,05,45,2.30
2018,10,14,05,46,2.30
2018,10,14,05,47,2.30
2018,10,14,05,48,2.40
2018,10,14,05,49,2.30
2018,10,14,05,50,2.40
2018,10,14,05,51,2.30
2018,10,14,05,52,2.30
2018,10,14,05,53,2.30
2018,10,14,05,54,2.30
2018,10,14,05,55,2.30
2018,10,14,05,56,2.20
2018,10,14,05,57,2.20
2018,10,14,05,58,2.20
2018,10,14,05,59,2.20
2018,10,14,06,00,2.20
2018,10,14,06,01,2.20
2018,10,14,06,02,2.10
2018,10,14,06,03,2.10
2018,10,14,06,04,2.10
2018,10,14,06,05,2.00
2018,10,14,06,06,2.00
2018,10,14,06,07,2.00
2018,10,14,06,08,1.90
2018,10,14,06,09,1.90
2018,10,14,06,10,1.90
2018,10,14,06,11,1.90
2018,10,14,06,12,1.80
2018,10,14,06,13,1.80
2018,10,14,06,14,1.80
2018,10,14,06,15,1.80
2018,10,14,06,16,1.80
2018,10,14,06,17,1.80
2018,10,14,06,18,1.80
2018,10,14,06,19,1.80
2018,10,14,06,20,1.70
2018,10,14,06,21,1.80
2018,10,14,06,22,1.70
2018,10,14,06,23,1.70
2018,10,14,06,24,1.70
2018,10,14,06,25,1.70
2018,10,14,06,26,1.70
2018,10,14,06,27,1.70
2018,10,14,06,28,1.60
2018,10,14,06,29,1.60
2018,10,14,06,30,1.60
2018,10,14,06,31,1.60
2018,10,14,06,32,1.60
2018,10,14,06,33,1.60
2018,10,14,06,34,1.60
2018,10,14,06,35,1.60
2018,10,14,06,36,1.60
2018,10,14,06,37,1.60
2018,10,14,06,38,1.50
2018,10,14,06,39,1.50
2018,10,14,06,40,1.50
2018,10,14,06,41,1.50
2018,10,14,06,42,1.50
2018,10,14,06,43,1.60
2018,10,14,06,44,1.60
2018,10,14,06,45,1.70
2018,10,14,06,46,1.70
2018,10,14,06,47,1.80
2018,10,14,06,48,1.80
2018,10,14,06,49,1.80
2018,10,14,06,50,1.80
2018,10,14,06,51,1.80
2018,10,14,06,52,1.80
2018,10,14,06,53,1.80
2018,10,14,06,54,1.80
2018,10,14,06,55,1.80
2018,10,14,06,56,1.80
2018,10,14,06,57,1.80
2018,10,14,06,58,1.80
2018,10,14,06,59,1.80
2018,10,14,07,00,1.80
2018,10,14,07,01,1.80
2018,10,14,07,02,1.80
2018,10,14,07,03,1.80
2018,10,14,07,04,1.70
2018,10,14,07,05,1.70
2018,10,14,07,06,1.70
2018,10,14,07,07,1.70
2018,10,14,07,08,1.70
2018,10,14,07,09,1.70
2018,10,14,07,10,1.70
2018,10,14,07,11,1.60
2018,10,14,07,12,1.60
2018,10,14,07,13,1.60
2018,10,14,07,14,1.60
2018,10,14,07,15,1.60
2018,10,14,07,16,1.50
2018,10,14,07,17,1.50
2018,10,14,07,18,1.50
2018,10,14,07,19,1.50
2018,10,14,07,20,1.50
2018,10,14,07,21,1.40
2018,10,14,07,22,1.40
2018,10,14,07,23,1.40
2018,10,14,07,24,1.40
2018,10,14,07,25,1.40
2018,10,14,07,26,1.40
2018,10,14,07,27,1.30
2018,10,14,07,28,1.30
2018,10,14,07,29,1.30
2018,10,14,07,30,1.30
2018,10,14,07,31,1.30
2018,10,14,07,32,1.30
2018,10,14,07,33,1.30
2018,10,14,07,34,1.20
2018,10,14,07,35,1.20
2018,10,14,07,36,1.20
2018,10,14,07,37,1.20
2018,10,14,07,38,1.20
2018,10,14,07,39,1.20
2018,10,14,07,40,1.20
2018,10,14,07,41,1.20
2018,10,14,07,42,1.20
2018,10,14,07,43,1.20
2018,10,14,07,44,1.10
2018,10,14,07,45,1.10
2018,10,14,07,46,1.10
2018,10,14,07,47,1.10
2018,10,14,07,48,1.10
2018,10,14,07,49,1.10
2018,10,14,07,50,1.10
2018,10,14,07,51,1.10
2018,10,14,07,52,1.10
2018,10,14,07,53,1.20
2018,10,14,07,54,1.20
2018,10,14,07,55,1.20
2018,10,14,07,56,1.20
2018,10,14,07,57,1.20
2018,10,14,07,58,1.20
2018,10,14,07,59,1.20
2018,10,14,08,00,1.20
2018,10,14,08,01,1.20
2018,10,14,08,02,1.20
2018,10,14,08,03,1.20
2018,10,14,08,04,1.20
2018,10,14,08,05,1.20
2018,10,14,08,06,1.20
2018,10,14,08,07,1.20
2018,10,14,08,08,1.20
2018,10,14,08,09,1.20
2018,10,14,08,10,1.20
2018,10,14,08,11,1.20
2018,10,14,08,12,1.30
2018,10,14,08,13,1.30
2018,10,14,08,14,1.30
2018,10,14,08,15,1.30
2018,10,14,08,16,1.30
2018,10,14,08,17,1.30
2018,10,14,08,18,1.30
2018,10,14,08,19,1.40
2018,10,14,08,20,1.40
2018,10,14,08,21,1.40
2018,10,14,08,22,1.50
2018,10,14,08,23,1.50
2018,10,14,08,24,1.60
2018,10,14,08,25,1.60
2018,10,14,08,26,1.60
2018,10,14,08,27,1.70
2018,10,14,08,28,1.70
2018,10,14,08,29,1.70
2018,10,14,08,30,1.80
2018,10,14,08,31,1.90
2018,10,14,08,32,2.00
2018,10,14,08,33,2.10
2018,10,14,08,34,2.20
2018,10,14,08,35,2.30
2018,10,14,08,36,2.40
2018,10,14,08,37,2.40
2018,10,14,08,38,2.50
2018,10,14,08,39,2.50
2018,10,14,08,40,2.60
2018,10,14,08,41,2.60
2018,10,14,08,42,2.60
2018,10,14,08,43,2.60
2018,10,14,08,44,2.60
2018,10,14,08,45,2.60
2018,10,14,08,46,2.60
2018,10,14,08,47,2.60
2018,10,14,08,48,2.60
2018,10,14,08,49,2.60
2018,10,14,08,50,2.60
2018,10,14,08,51,2.60
2018,10,14,08,52,2.60
2018,10,14,08,53,2.70
2018,10,14,08,54,2.70
2018,10,14,08,55,2.70
2018,10,14,08,56,2.70
2018,10,14,08,57,2.70
2018,10,14,08,58,2.80
2018,10,14,08,59,2.80
2018,10,14,09,00,2.80
2018,10,14,09,01,2.90
2018,10,14,09,02,2.90
2018,10,14,09,03,3.00
2018,10,14,09,04,3.00
2018,10,14,09,05,3.10
2018,10,14,09,06,3.10
2018,10,14,09,07,3.20
2018,10,14,09,08,3.20
2018,10,14,09,09,3.30
2018,10,14,09,10,3.40
2018,10,14,09,11,3.40
2018,10,14,09,12,3.50
2018,10,14,09,13,3.60
2018,10,14,09,14,3.70
2018,10,14,09,15,3.80
2018,10,14,09,16,3.90
2018,10,14,09,17,3.90
2018,10,14,09,18,4.00
2018,10,14,09,19,4.10
2018,10,14,09,20,4.20
2018,10,14,09,21,4.20
2018,10,14,09,22,4.30
2018,10,14,09,23,4.30
2018,10,14,09,24,4.40
2018,10,14,09,25,4.40
2018,10,14,09,26,4.50
2018,10,14,09,27,4.60
2018,10,14,09,28,4.70
2018,10,14,09,29,4.80
2018,10,14,09,30,4.80
2018,10,14,09,31,4.90
2018,10,14,09,32,5.00
2018,10,14,09,33,5.10
2018,10,14,09,34,5.20
2018,10,14,09,35,5.30
2018,10,14,09,36,5.40
2018,10,14,09,37,5.50
2018,10,14,09,38,5.60
2018,10,14,09,39,5.70
2018,10,14,09,40,5.80
2018,10,14,09,41,5.90
2018,10,14,09,42,5.90
2018,10,14,09,43,6.00
2018,10,14,09,44,6.10
2018,10,14,09,45,6.20
2018,10,14,09,46,6.30
2018,10,14,09,47,6.30
2018,10,14,09,48,6.40
2018,10,14,09,49,6.50
2018,10,14,09,50,6.50
2018,10,14,09,51,6.60
2018,10,14,09,52,6.70
2018,10,14,09,53,6.70
2018,10,14,09,54,6.80
2018,10,14,09,55,6.80
2018,10,14,09,56,6.90
2018,10,14,09,57,7.00
2018,10,14,09,58,7.00
2018,10,14,09,59,7.10
2018,10,14,10,00,7.20
2018,10,14,10,01,7.30
2018,10,14,10,02,7.30
2018,10,14,10,03,7.40
2018,10,14,10,04,7.50
2018,10,14,10,05,7.50
2018,10,14,10,06,7.60
2018,10,14,10,07,7.70
2018,10,14,10,08,7.70
2018,10,14,10,09,7.80
2018,10,14,10,10,7.80
2018,10,14,10,11,7.90
2018,10,14,10,12,7.90
2018,10,14,10,13,8.00
2018,10,14,10,14,8.00
2018,10,14,10,15,8.10
2018,10,14,10,16,8.20
2018,10,14,10,17,8.20
2018,10,14,10,18,8.30
2018,10,14,10,19,8.40
2018,10,14,10,20,8.40
2018,10,14,10,21,8.50
2018,10,14,10,22,8.50
2018,10,14,10,23,8.60
2018,10,14,10,24,8.70
2018,10,14,10,25,8.70
2018,10,14,10,26,8.80
2018,10,14,10,27,8.80
2018,10,14,10,28,8.80
2018,10,14,10,29,8.90
2018,10,14,10,30,8.90
2018,10,14,10,31,9.00
2018,10,14,10,32,9.00
2018,10,14,10,33,9.10
2018,10,14,10,34,9.10
2018,10,14,10,35,9.20
2018,10,14,10,36,9.20
2018,10,14,10,37,9.30
2018,10,14,10,38,9.30
2018,10,14,10,39,9.40
2018,10,14,10,40,9.40
2018,10,14,10,41,9.40
2018,10,14,10,42,9.40
2018,10,14,10,43,9.50
2018,10,14,10,44,9.50
2018,10,14,10,45,9.50
2018,10,14,10,46,9.60
2018,10,14,10,47,9.60
2018,10,14,10,48,9.60
2018,10,14,10,49,9.60
2018,10,14,10,50,9.60
2018,10,14,10,51,9.70
2018,10,14,10,52,9.70
2018,10,14,10,53,9.70
2018,10,14,10,54,9.80
2018,10,14,10,55,9.80
2018,10,14,10,56,9.80
2018,10,14,10,57,9.90
2018,10,14,10,58,9.90
2018,10,14,10,59,9.90
2018,10,14,11,00,10.00
2018,10,14,11,01,10.00
2018,10,14,11,02,10.00
2018,10,14,11,03,10.00
2018,10,14,11,04,10.10
2018,10,14,11,05,10.10
2018,10,14,11,06,10.10
2018,10,14,11,07,10.10
2018,10,14,11,08,10.10
2018,10,14,11,09,10.20
2018,10,14,11,10,10.20
2018,10,14,11,11,10.20
2018,10,14,11,12,10.30
2018,10,14,11,13,10.30
2018,10,14,11,14,10.30
2018,10,14,11,15,10.30
2018,10,14,11,16,10.40
2018,10,14,11,17,10.40
2018,10,14,11,18,10.50
2018,10,14,11,19,10.50
2018,10,14,11,20,10.50
2018,10,14,11,21,10.60
2018,10,14,11,22,10.60
2018,10,14,11,23,10.70
2018,10,14,11,24,10.70
2018,10,14,11,25,10.70
2018,10,14,11,26,10.70
2018,10,14,11,27,10.80
2018,10,14,11,28,10.80
2018,10,14,11,29,10.80
2018,10,14,11,30,10.80
2018,10,14,11,31,10.90
2018,10,14,11,32,10.90
2018,10,14,11,33,10.90
2018,10,14,11,34,10.90
2018,10,14,11,35,10.90
2018,10,14,11,36,10.90
2018,10,14,11,37,10.90
2018,10,14,11,38,11.00
2018,10,14,11,39,11.00
2018,10,14,11,40,11.10
2018,10,14,11,41,11.10
2018,10,14,11,42,11.10
2018,10,14,11,43,11.10
2018,10,14,11,44,11.10
2018,10,14,11,45,11.20
2018,10,14,11,46,11.20
2018,10,14,11,47,11.20
2018,10,14,11,48,11.20
2018,10,14,11,49,11.20
2018,10,14,11,50,11.30
2018,10,14,11,51,11.30
2018,10,14,11,52,11.30
2018,10,14,11,53,11.30
2018,10,14,11,54,11.30
2018,10,14,11,55,11.30
2018,10,14,11,56,11.30
2018,10,14,11,57,11.30
2018,10,14,11,58,11.30
2018,10,14,11,59,11.30
2018,10,14,12,00,11.40
2018,10,14,12,01,11.40
2018,10,14,12,02,11.30
2018,10,14,12,03,11.30
2018,10,14,12,04,11.30
2018,10,14,12,05,11.30
2018,10,14,12,06,11.30
2018,10,14,12,07,11.30
2018,10,14,12,08,11.30
2018,10,14,12,09,11.30
2018,10,14,12,10,11.30
2018,10,14,12,11,11.40
2018,10,14,12,12,11.40
2018,10,14,12,13,11.50
2018,10,14,12,14,11.50
2018,10,14,12,15,11.50
2018,10,14,12,16,11.60
2018,10,14,12,17,11.60
2018,10,14,12,18,11.70
2018,10,14,12,19,11.70
2018,10,14,12,20,11.70
2018,10,14,12,21,11.70
2018,10,14,12,22,11.70
2018,10,14,12,23,11.70
2018,10,14,12,24,11.70
2018,10,14,12,25,11.70
2018,10,14,12,26,11.70
2018,10,14,12,27,11.70
2018,10,14,12,28,11.70
2018,10,14,12,29,11.70
2018,10,14,12,30,11.80
2018,10,14,12,31,11.80
2018,10,14,12,32,11.90
2018,10,14,12,33,11.90
2018,10,14,12,34,11.90
2018,10,14,12,35,12.00
2018,10,14,12,36,12.00
2018,10,14,12,37,11.90
2018,10,14,12,38,11.90
2018,10,14,12,39,11.90
2018,10,14,12,40,11.90
2018,10,14,12,41,12.00
2018,10,14,12,42,12.00
2018,10,14,12,43,12.00
2018,10,14,12,44,12.10
2018,10,14,12,45,12.10
2018,10,14,12,46,12.10
2018,10,14,12,47,12.20
2018,10,14,12,48,12.20
2018,10,14,12,49,12.20
2018,10,14,12,50,12.20
2018,10,14,12,51,12.20
2018,10,14,12,52,12.20
2018,10,14,12,53,12.20
2018,10,14,12,54,12.20
2018,10,14,12,55,12.30
2018,10,14,12,56,12.30
2018,10,14,12,57,12.30
2018,10,14,12,58,12.30
2018,10,14,12,59,12.30
2018,10,14,13,00,12.30
2018,10,14,13,01,12.40
2018,10,14,13,02,12.40
2018,10,14,13,03,12.40
2018,10,14,13,04,12.50
2018,10,14,13,05,12.50
2018,10,14,13,06,12.50
2018,10,14,13,07,12.50
2018,10,14,13,08,12.50
2018,10,14,13,09,12.50
2018,10,14,13,10,12.50
2018,10,14,13,11,12.60
2018,10,14,13,12,12.60
2018,10,14,13,13,12.60
2018,10,14,13,14,12.60
2018,10,14,13,15,12.60
2018,10,14,13,16,12.60
2018,10,14,13,17,12.60
2018,10,14,13,18,12.60
2018,10,14,13,19,12.60
2018,10,14,13,20,12.60
2018,10,14,13,21,12.60
2018,10,14,13,22,12.60
2018,10,14,13,23,12.60
2018,10,14,13,24,12.60
2018,10,14,13,25,12.60
2018,10,14,13,26,12.60
2018,10,14,13,27,12.60
2018,10,14,13,28,12.60
2018,10,14,13,29,12.60
2018,10,14,13,30,12.60
2018,10,14,13,31,12.60
2018,10,14,13,32,12.60
2018,10,14,13,33,12.70
2018,10,14,13,34,12.70
2018,10,14,13,35,12.70
2018,10,14,13,36,12.70
2018,10,14,13,37,12.80
2018,10,14,13,38,12.80
2018,10,14,13,39,12.80
2018,10,14,13,40,12.80
2018,10,14,13,41,12.80
2018,10,14,13,42,12.80
2018,10,14,13,43,12.80
2018,10,14,13,44,12.80
2018,10,14,13,45,12.80
2018,10,14,13,46,12.80
2018,10,14,13,47,12.90
2018,10,14,13,48,12.90
2018,10,14,13,49,12.90
2018,10,14,13,50,12.80
2018,10,14,13,51,12.80
2018,10,14,13,52,12.80
2018,10,14,13,53,12.80
2018,10,14,13,54,12.80
2018,10,14,13,55,12.80
2018,10,14,13,56,12.80
2018,10,14,13,57,12.90
2018,10,14,13,58,12.90
2018,10,14,13,59,12.90
2018,10,14,14,00,12.90
2018,10,14,14,01,13.00
2018,10,14,14,02,13.00
2018,10,14,14,03,13.00
2018,10,14,14,04,13.00
2018,10,14,14,05,13.00
2018,10,14,14,06,13.00
2018,10,14,14,07,13.00
2018,10,14,14,08,13.00
2018,10,14,14,09,13.00
2018,10,14,14,10,13.00
2018,10,14,14,11,13.00
2018,10,14,14,12,13.00
2018,10,14,14,13,12.90
2018,10,14,14,14,12.90
2018,10,14,14,15,12.90
2018,10,14,14,16,12.80
2018,10,14,14,17,12.80
2018,10,14,14,18,12.80
2018,10,14,14,19,12.80
2018,10,14,14,20,12.80
2018,10,14,14,21,12.80
2018,10,14,14,22,12.70
2018,10,14,14,23,12.70
2018,10,14,14,24,12.70
2018,10,14,14,25,12.70
2018,10,14,14,26,12.70
2018,10,14,14,27,12.70
2018,10,14,14,28,12.80
2018,10,14,14,29,12.80
2018,10,14,14,30,12.80
2018,10,14,14,31,12.90
2018,10,14,14,32,12.90
2018,10,14,14,33,12.90
2018,10,14,14,34,12.90
2018,10,14,14,35,12.90
2018,10,14,14,36,13.00
2018,10,14,14,37,13.00
2018,10,14,14,38,13.00
2018,10,14,14,39,13.10
2018,10,14,14,40,13.10
2018,10,14,14,41,13.10
2018,10,14,14,42,13.10
2018,10,14,14,43,13.10
2018,10,14,14,44,13.10
2018,10,14,14,45,13.10
2018,10,14,14,46,13.10
2018,10,14,14,47,13.10
2018,10,14,14,48,13.20
2018,10,14,14,49,13.20
2018,10,14,14,50,13.20
2018,10,14,14,51,13.30
2018,10,14,14,52,13.30
2018,10,14,14,53,13.30
2018,10,14,14,54,13.40
2018,10,14,14,55,13.40
2018,10,14,14,56,13.30
2018,10,14,14,57,13.30
2018,10,14,14,58,13.30
2018,10,14,14,59,13.30
2018,10,14,15,00,13.30
2018,10,14,15,01,13.30
2018,10,14,15,02,13.30
2018,10,14,15,03,13.30
2018,10,14,15,04,13.20
2018,10,14,15,05,13.20
2018,10,14,15,06,13.30
2018,10,14,15,07,13.30
2018,10,14,15,08,13.30
2018,10,14,15,09,13.30
2018,10,14,15,10,13.30
2018,10,14,15,11,13.30
2018,10,14,15,12,13.30
2018,10,14,15,13,13.30
2018,10,14,15,14,13.30
2018,10,14,15,15,13.30
2018,10,14,15,16,13.30
2018,10,14,15,17,13.30
2018,10,14,15,18,13.30
2018,10,14,15,19,13.40
2018,10,14,15,20,13.40
2018,10,14,15,21,13.30
2018,10,14,15,22,13.30
2018,10,14,15,23,13.30
2018,10,14,15,24,13.30
2018,10,14,15,25,13.30
2018,10,14,15,26,13.30
2018,10,14,15,27,13.30
2018,10,14,15,28,13.30
2018,10,14,15,29,13.30
2018,10,14,15,30,13.30
2018,10,14,15,31,13.30
2018,10,14,15,32,13.30
2018,10,14,15,33,13.30
2018,10,14,15,34,13.30
2018,10,14,15,35,13.40
2018,10,14,15,36,13.40
2018,10,14,15,37,13.40
2018,10,14,15,38,13.40
2018,10,14,15,39,13.40
2018,10,14,15,40,13.30
2018,10,14,15,41,13.40
2018,10,14,15,42,13.40
2018,10,14,15,43,13.40
2018,10,14,15,44,13.40
2018,10,14,15,45,13.40
2018,10,14,15,46,13.40
2018,10,14,15,47,13.40
2018,10,14,15,48,13.40
2018,10,14,15,49,13.40
2018,10,14,15,50,13.40
2018,10,14,15,51,13.50
2018,10,14,15,52,13.50
2018,10,14,15,53,13.60
2018,10,14,15,54,13.60
2018,10,14,15,55,13.60
2018,10,14,15,56,13.60
2018,10,14,15,57,13.60
2018,10,14,15,58,13.60
2018,10,14,15,59,13.50
2018,10,14,16,00,13.50
2018,10,14,16,01,13.50
2018,10,14,16,02,13.40
2018,10,14,16,03,13.40
2018,10,14,16,04,13.40
2018,10,14,16,05,13.40
2018,10,14,16,06,13.40
2018,10,14,16,07,13.40
2018,10,14,16,08,13.40
2018,10,14,16,09,13.40
2018,10,14,16,10,13.30
2018,10,14,16,11,13.30
2018,10,14,16,12,13.30
2018,10,14,16,13,13.30
2018,10,14,16,14,13.30
2018,10,14,16,15,13.30
2018,10,14,16,16,13.30
2018,10,14,16,17,13.30
2018,10,14,16,18,13.30
2018,10,14,16,19,13.30
2018,10,14,16,20,13.30
2018,10,14,16,21,13.30
2018,10,14,16,22,13.30
2018,10,14,16,23,13.30
2018,10,14,16,24,13.30
2018,10,14,16,25,13.30
2018,10,14,16,26,13.30
2018,10,14,16,27,13.30
2018,10,14,16,28,13.30
2018,10,14,16,29,13.30
2018,10,14,16,30,13.30
2018,10,14,16,31,13.30
2018,10,14,16,32,13.30
2018,10,14,16,33,13.30
2018,10,14,16,34,13.30
2018,10,14,16,35,13.30
2018,10,14,16,36,13.30
2018,10,14,16,37,13.30
2018,10,14,16,38,13.30
2018,10,14,16,39,13.30
2018,10,14,16,40,13.30
2018,10,14,16,41,13.30
2018,10,14,16,42,13.30
2018,10,14,16,43,13.30
2018,10,14,16,44,13.30
2018,10,14,16,45,13.30
2018,10,14,16,46,13.20
2018,10,14,16,47,13.20
2018,10,14,16,48,13.20
2018,10,14,16,49,13.20
2018,10,14,16,50,13.20
2018,10,14,16,51,13.20
2018,10,14,16,52,13.20
2018,10,14,16,53,13.20
2018,10,14,16,54,13.20
2018,10,14,16,55,13.20
2018,10,14,16,56,13.10
2018,10,14,16,57,13.10
2018,10,14,16,58,13.10
2018,10,14,16,59,13.00
2018,10,14,17,00,13.00
2018,10,14,17,01,13.00
2018,10,14,17,02,12.90
2018,10,14,17,03,12.90
2018,10,14,17,04,12.90
2018,10,14,17,05,12.90
2018,10,14,17,06,12.80
2018,10,14,17,07,12.80
2018,10,14,17,08,12.80
2018,10,14,17,09,12.70
2018,10,14,17,10,12.70
2018,10,14,17,11,12.70
2018,10,14,17,12,12.60
2018,10,14,17,13,12.60
2018,10,14,17,14,12.60
2018,10,14,17,15,12.50
2018,10,14,17,16,12.50
2018,10,14,17,17,12.40
2018,10,14,17,18,12.40
2018,10,14,17,19,12.40
2018,10,14,17,20,12.40
2018,10,14,17,21,12.40
2018,10,14,17,22,12.30
2018,10,14,17,23,12.30
2018,10,14,17,24,12.30
2018,10,14,17,25,12.30
2018,10,14,17,26,12.30
2018,10,14,17,27,12.30
2018,10,14,17,28,12.30
2018,10,14,17,29,12.30
2018,10,14,17,30,12.20
2018,10,14,17,31,12.20
2018,10,14,17,32,12.20
2018,10,14,17,33,12.20
2018,10,14,17,34,12.20
2018,10,14,17,35,12.20
2018,10,14,17,36,12.20
2018,10,14,17,37,12.20
2018,10,14,17,38,12.20
2018,10,14,17,39,12.20
2018,10,14,17,40,12.10
2018,10,14,17,41,12.10
2018,10,14,17,42,12.10
2018,10,14,17,43,12.10
2018,10,14,17,44,12.10
2018,10,14,17,45,12.10
2018,10,14,17,46,12.00
2018,10,14,17,47,12.00
2018,10,14,17,48,12.00